Вернуться в каталог

USA 484

АктивенВоенныеVLEO
NORAD 62553·PAYLOAD·🇺🇸 United States

Запущен Jan 10, 2025 с Vandenberg Space Force Base

Loading…

Ближайшие Пролёты (ближайшие 24 часа)

TLE

УстаревшееSource: Mike McCants

Эпоха: Aug 26, 2026, 01:35 UTC

1 62553U 25005X   26238.06627079 0.00000000  00000-0  00000-0 0    04
2 62553  70.0144 226.3957 0002000 165.5945 194.4055 14.96713418    02

Отслеживайте USA 484 в реальном времени с AllMySat

Download on the App Store